Showing default

HIBARI, 49400

Orbit data source: Space-Track

HIBARI, 49400 is a payload satellite owned by TITech (JP) in SSO that was launched on Tue, 09 Nov 2021 UTC via an EPSILON launch vehicle from the Kagoshima Space Center University Of Tokyo (KSCUT). Payload-class satellites include a variety of spacecraft equipped with specific instruments for various scientific and technological missions. These include communications satellites like Starlink; space stations such as the ISS; scientific satellites like the Hubble; Earth observation satellites from companies like Planet Labs, Umbra, and HawkEye 360; GPS; miniature CubeSats for education and research; and military/defense satellites.

Loading next visibility...
Identifier
49400, 2021-102F
Orbit
SSO
Last TLE update
3 hours ago
Origin
Manufacturer
TITech
Mission
Operational Amateur Technology
Bus & Motor
HIBARI, Unknown motor
Mass
55 kg wet, 55 kg dry
Launch date (UTC)
2021-11-09 (4 years ago)
Launch vehicle
EPSILON
Launch site
Kagoshima Space Center University Of Tokyo (KSCUT)
Object type
Payload
Rocket body
Debris
Shape & HBR
Box, 0.59 m
Radar Cross Section
0.499 m², Medium (>0.1 m² and < 1m²)

Expand to show TLE details & history

TLE from 3 hours ago
0 HIBARI
1 49400U 21102F   25133.56703524  .00008022  00000-0  34871-3 0  9997
2 49400  97.3782 180.4141 0015004 167.5254 192.6357 15.22439943193215
Epoch: 2025-05-13T13:36Z
Definitive object data (Epoch: 2025-05-13T13:36:31.844Z)
Latitude
-0.00003°
Longitude
104.7175°
Altitude
511.649 km
Speed
7.602 km/s
True Right ascension
12h 01m 39s
True Declination
0° 00' 00"
Sunlit
Object was in full shadow at TLE epoch
Visualization TLE readout
Latitude
41.95036°
Longitude
98.20722°
Altitude
510.555 km
Speed
7.609 km/s
Apparent Right ascension
12h 28m 10s
Apparent Declination
3° 00' 16"
Sunlit
Object is in daylight
Visualization observer readout
Local Sidereal Time
01:23:15
Azimuth
19.74° NNE
Elevation
-45.257°
Doppler factor
1
Orbital elements
Apogee altitude
505.758 km
Perigee altitude
485.132 km
Semi-major axis
6,873.582 km
Eccentricity
0.0015004
Inclination
97.3782°
RAAN
180.4141°
Arg. of periapsis
167.5254°
True anomaly
192.59816°
Mean anomaly
192.6357°
Eccentric anomaly
192.61692°
Mean motion
3.80863 °/min
BSTAR
0.00034871
Orbital period
94.52 mins
Loading maneuver chart data...
Loading SW <> Apogee altitude chart data...
Loading historical data...
Loading historical data...
Loading historical data...
Loading historical data...
Loading historical data...
Loading historical data...
Loading historical data...

HIBARI Visibility forecast

Observer location: undefined°, undefined°

Span
Click to sort rows by Start time (UTC) header in descending order
Start Az.
Max El. time (UTC)
Max El. Az.
Max El.
End time (UTC)
End Az.
4 mins2025-05-14 02:22:56.059Z111.931° ESE2025-05-14 02:24:56.059Z70.118° E20.982°2025-05-14 02:26:56.059Z28.259° NE
4 mins2025-05-14 03:56:56.059Z230.099° WSW2025-05-14 03:58:56.059Z273.88° WNW19.564°2025-05-14 04:00:56.059Z310.595° NW
5 mins2025-05-14 15:25:56.059Z47.394° ENE2025-05-14 15:27:56.059Z100.764° ESE27.191°2025-05-14 15:30:56.059Z160.366° S
|